Location: Berlise
(49.6641°N, 4.1077°E)
Time: 23:52:44
(UTC+00:00)

USA 305 - Pass Details

Date: 27 January 2021
Orbit: 565 x 578 km, 54.0° (Epoch: 28 February)

Event Time Altitude Azimuth Distance (km) Brightness Sun altitude
Exits shadow 06:26:26 10° 264° (W) 1,869 5.0 -9.2°
Reaches altitude 10° 06:26:27 10° 264° (W) 1,860 4.9 -9.2°
Maximum altitude 06:30:38 58° 344° (NNW) 662 3.0 -8.6°
Drops below altitude 10° 06:34:49 10° 65° (ENE) 1,865 6.2 -7.9°
Sets 06:37:06 0° 69° (ENE) 2,764 7.3 -7.6°
